Temp
-5 -5 -5 -5 -4 -4 -5 -5 -5 -5 -6 -6 -5 -6 -6 -6 -6 -6 -6 -7 -7 -7 -7 -7 -7 -7 -7 -7 -7 -7 -7 -8 -8 -8 -8 -8 -8 -9 -8 -8 -9 -9 -9
-5 -5 -5 -4 -4 -5 -5 -5 -5 -5 -5 -5 -5 -5 -5 -6 -6 -6 -6 -7 -7 -7 -7 -7 -7 -7 -7 -7 -7 -7 -7 -7 -7 -7 -7 -7 -8 -8 -8 -8 -8 -8 -8
-4 -4 -5 -5 -4 -5 -5 -5 -5 -5 -5 -5 -5 -5 -5 -6 -6 -6 -6 -7 -7 -7 -6 -6 -6 -6 -6 -7 -7 -7 -7 -7 -7 -6 -8 -7 -7 -7 -8 -8 -8 -8 -8
-3 -4 -4 -4 -4 -5 -5 -5 -5 -5 -5 -5 -5 -5 -5 -5 -5 -6 -6 -6 -6 -7 -7 -6 -6 -6 -6 -6 -6 -7 -7 -7 -7 -7 -7 -7 -7 -8 -8 -8 -8 -8 -8
-4 -3 -4 -4 -4 -5 -5 -5 -5 -5 -5 -5 -5 -5 -5 -5 -6 -6 -6 -6 -7 -7 -7 -7 -6 -7 -7 -7 -7 -7 -7 -7 -7 -7 -7 -7 -8 -8 -8 -8 -8 -8 -8
-4 -4 -4 -4 -5 -5 -5 -5 -4 -4 -4 -5 -5 -5 -5 -5 -5 -6 -6 -6 -6 -6 -6 -6 -7 -7 -7 -7 -7 -7 -7 -7 -7 -7 -8 -8 -8 -8 -8 -8 -8 -8 -8
-4 -4 -4 -4 -4 -4 -4 -4 -4 -4 -4 -5 -5 -5 -5 -5 -5 -5 -6 -6 -6 -6 -6 -6 -6 -6 -6 -6 -6 -7 -7 -7 -8 -7 -7 -7 -8 -8 -8 -8 -8 -8 -8
-4 -4 -4 -4 -4 -4 -4 -4 -4 -4 -4 -5 -5 -5 -5 -5 -5 -5 -5 -6 -6 -6 -6 -6 -6 -6 -6 -7 -7 -7 -7 -7 -7 -7 -7 -7 -7 -7 -8 -8 -8 -8 -7
-4 -4 -4 -4 -4 -4 -4 -4 -4 -4 -4 -5 -5 -5 -5 -5 -5 -5 -6 -6 -6 -6 -6 -5 -6 -6 -6 -6 -6 -6 -6 -6 -7 -7 -7 -7 -7 -7 -7 -7 -8 -7 -7
-4 -4 -4 -4 -4 -4 -4 -4 -4 -4 -4 -4 -5 -5 -5 -5 -5 -5 -6 -6 -6 -6 -6 -6 -6 -6 -6 -6 -6 -6 -6 -6 -6 -6 -7 -7 -7 -7 -7 -7 -7 -7 -7
-4 -4 -4 -4 -4 -4 -4 -4 -4 -4 -4 -4 -4 -5 -4 -5 -5 -5 -5 -6 -6 -5 -6 -6 -6 -6 -6 -6 -6 -6 -7 -7 -7 -7 -7 -6 -6 -7 -7 -7 -7 -7 -6
-3 -4 -4 -4 -4 -4 -4 -4 -4 -4 -4 -4 -4 -4 -5 -4 -4 -5 -5 -5 -5 -5 -5 -5 -5 -5 -6 -6 -6 -6 -7 -7 -7 -6 -7 -6 -6 -6 -6 -6 -7 -7 -6
-4 -4 -4 -4 -4 -4 -4 -4 -4 -4 -4 -4 -4 -4 -4 -4 -5 -4 -5 -5 -5 -5 -5 -5 -5 -6 -6 -6 -6 -6 -6 -6 -6 -7 -6 -6 -6 -6 -6 -6 -6 -6 -6
-4 -4 -4 -4 -4 -4 -4 -4 -4 -4 -4 -4 -4 -4 -4 -4 -5 -5 -5 -4 -5 -5 -5 -5 -6 -5 -5 -6 -6 -6 -6 -6 -6 -6 -6 -6 -6 -6 -6 -6 -6 -6 -6
-4 -4 -4 -4 -4 -4 -4 -4 -4 -4 -4 -4 -4 -4 -4 -4 -4 -5 -5 -5 -4 -5 -5 -5 -5 -5 -6 -6 -6 -6 -6 -6 -6 -6 -6 -6 -6 -6 -6 -6 -6 -6 -6
-3 -4 -4 -4 -4 -4 -4 -4 -4 -4 -4 -4 -4 -4 -4 -4 -4 -5 -5 -5 -5 -5 -5 -5 -5 -6 -5 -5 -5 -6 -6 -6 -6 -6 -6 -6 -6 -6 -6 -6 -6 -6 -6
-4 -3 -3 -4 -4 -4 -4 -4 -4 -4 -4 -4 -4 -4 -4 -4 -5 -4 -5 -5 -5 -5 -5 -5 -5 -5 -5 -5 -5 -6 -6 -6 -6 -6 -6 -6 -6 -6 -6 -6 -5 -6 -5
-4 -4 -4 -4 -4 -4 -4 -4 -4 -4 -4 -4 -4 -4 -4 -4 -4 -5 -5 -5 -5 -5 -5 -5 -5 -5 -5 -5 -6 -7 -3 -6 -6 -6 -6 -6 -6 -6 -6 -6 -5 -5 -5
-4 -4 -4 -4 -4 -4 -4 -4 -4 -4 -4 -4 -4 -4 -4 -4 -4 -4 -4 -5 -5 -5 -5 -4 -4 -5 -5 -5 -5 -6 -6 -5 -6 -6 -6 -6 -6 -6 -6 -6 -5 -6 -5
-4 -4 -4 -4 -4 -4 -4 -4 -4 -4 -4 -4 -4 -4 -4 -4 -4 -4 -4 -4 -5 -5 -5 -5 -5 -5 -6 -6 -5 -5 -5 -6 -6 -6 -6 -6 -6 -6 -6 -6 -6 -6 -6
-4 -4 -4 -4 -4 -4 -4 -4 -5 -5 -4 -4 -4 -4 -4 -4 -4 -4 -4 -4 -4 -5 -4 -5 -5 -5 -5 -5 -4 -6 -6 -6 -7 -7 -7 -7 -7 -7 -7 -6 -6 -7 -6
-5 -4 -4 -4 -4 -4 -4 -5 -5 -5 -5 -4 -4 -4 -4 -4 -4 -4 -4 -4 -4 -3 -5 -5 -5 -5 -5 -5 -4 -5 -5 -4 -5 -6 -7 -7 -7 -7 -7 -7 -6 -6 -6
-5 -5 -4 -4 -4 -4 -4 -4 -5 -5 -5 -5 -4 -4 -4 -4 -4 -3 -4 -4 -4 -5 -5 -5 -5 -5 -5 -5 -5 -5 -5 -6 -4 -6 -6 -8 -7 -7 -7 -7 -7 -7 -6
-5 -6 -5 -5 -5 -5 -5 -4 -5 -5 -5 -5 -5 -5 -4 -4 -4 -4 -4 -4 -4 -5 -5 -5 -5 -5 -6 -6 -6 -5 -5 -6 -6 -6 -3 -7 -7 -7 -7 -7 -7 -7 -7
-5 -6 -5 -6 -5 -5 -5 -5 -5 -5 -5 -5 -5 -5 -5 -5 -5 -4 -4 -4 -4 -5 -4 -5 -6 -6 -7 -6 -6 -6 -6 -6 -7 -7 -7 -6 -7 -7 -7 -7 -7 -7 -7
-5 -5 -6 -6 -6 -6 -5 -5 -5 -5 -5 -5 -5 -5 -5 -5 -5 -4 -4 -5 -5 -5 -5 -5 -7 -6 -7 -7 -7 -6 -6 -6 -6 -7 -7 -6 -6 -7 -7 -7 -7 -7 -7
Height
5915 5915 5916 5917 5916 5917 5916 5914 5914 5914 5914 5914 5914 5913 5913 5913 5913 5913 5913 5913 5912 5912 5912 5912 5912 5913 5914 5914 5913 5913 5913 5914 5914 5913 5913 5913 5913 5911 5912 5911 5911 5911 5913
5917 5918 5919 5920 5920 5919 5918 5917 5917 5917 5917 5916 5916 5916 5915 5916 5916 5915 5915 5915 5914 5913 5914 5914 5914 5915 5915 5915 5914 5914 5914 5914 5915 5913 5913 5912 5914 5911 5911 5912 5910 5911 5912
5921 5921 5921 5922 5921 5922 5922 5921 5921 5921 5920 5920 5919 5919 5918 5918 5918 5917 5917 5917 5916 5916 5915 5915 5915 5916 5916 5916 5916 5916 5916 5916 5916 5916 5909 5887 5913 5913 5910 5910 5910 5910 5911
5922 5923 5922 5923 5925 5925 5925 5925 5924 5923 5923 5923 5922 5922 5921 5920 5920 5920 5919 5919 5919 5918 5917 5917 5917 5918 5918 5919 5919 5918 5918 5918 5918 5918 5917 5915 5917 5914 5913 5911 5910 5910 5910
5924 5925 5926 5926 5927 5927 5927 5928 5928 5927 5927 5927 5926 5925 5924 5923 5922 5921 5921 5921 5920 5920 5920 5919 5920 5920 5920 5921 5921 5921 5920 5920 5919 5918 5917 5918 5917 5915 5915 5913 5912 5911 5910
5926 5927 5929 5929 5929 5929 5930 5931 5931 5930 5930 5930 5929 5928 5927 5926 5925 5924 5923 5923 5922 5922 5922 5922 5923 5923 5923 5923 5923 5923 5923 5922 5920 5919 5918 5918 5917 5916 5915 5914 5912 5911 5911
5928 5929 5930 5932 5932 5932 5933 5934 5933 5933 5934 5933 5932 5931 5930 5929 5929 5928 5927 5926 5925 5924 5925 5925 5925 5925 5925 5924 5925 5925 5924 5923 5921 5920 5919 5918 5918 5917 5917 5915 5914 5913 5912
5931 5932 5933 5933 5934 5935 5935 5936 5936 5936 5935 5935 5935 5933 5933 5933 5931 5930 5930 5928 5928 5927 5927 5927 5928 5928 5928 5927 5927 5927 5925 5924 5922 5921 5920 5920 5920 5919 5918 5916 5915 5914 5912
5935 5935 5935 5935 5936 5937 5937 5937 5938 5938 5938 5938 5937 5937 5936 5936 5934 5933 5933 5932 5931 5930 5930 5930 5930 5931 5931 5930 5928 5928 5927 5926 5925 5924 5922 5922 5921 5920 5920 5918 5916 5914 5913
5937 5937 5938 5939 5938 5939 5939 5940 5940 5940 5940 5941 5940 5940 5939 5939 5937 5936 5935 5934 5934 5933 5933 5932 5933 5933 5933 5932 5930 5930 5929 5928 5927 5926 5925 5925 5924 5922 5921 5919 5918 5916 5914
5937 5938 5939 5940 5941 5941 5941 5941 5941 5941 5942 5942 5943 5942 5941 5941 5940 5939 5938 5936 5935 5935 5935 5934 5934 5935 5935 5933 5933 5932 5931 5930 5929 5929 5927 5927 5925 5925 5924 5922 5919 5918 5916
5939 5938 5939 5940 5942 5942 5943 5943 5943 5942 5942 5943 5944 5944 5944 5943 5942 5941 5939 5938 5938 5937 5937 5937 5937 5937 5937 5936 5936 5934 5934 5933 5932 5930 5930 5929 5928 5927 5925 5924 5922 5919 5917
5941 5941 5940 5941 5942 5943 5943 5944 5944 5944 5944 5944 5945 5945 5945 5945 5944 5942 5942 5940 5940 5940 5941 5940 5941 5940 5939 5938 5939 5938 5936 5935 5935 5934 5932 5932 5930 5929 5927 5925 5924 5922 5920
5942 5942 5942 5942 5942 5943 5944 5944 5945 5945 5945 5945 5946 5946 5946 5946 5945 5945 5944 5943 5942 5942 5942 5942 5942 5941 5940 5940 5940 5939 5938 5938 5938 5937 5935 5934 5933 5931 5929 5928 5926 5925 5923
5942 5942 5942 5943 5944 5944 5944 5945 5946 5946 5946 5946 5946 5946 5946 5946 5945 5946 5945 5945 5944 5943 5943 5943 5943 5943 5942 5943 5942 5941 5940 5940 5939 5939 5938 5938 5935 5934 5932 5930 5927 5925 5923
5943 5942 5942 5943 5944 5945 5945 5946 5947 5947 5947 5946 5946 5946 5946 5946 5945 5945 5945 5945 5945 5945 5944 5944 5944 5944 5943 5943 5943 5942 5942 5941 5940 5940 5940 5939 5937 5936 5934 5932 5930 5926 5923
5942 5942 5942 5942 5943 5944 5945 5945 5946 5946 5947 5947 5947 5946 5946 5945 5945 5944 5945 5945 5945 5945 5944 5944 5943 5943 5943 5942 5943 5944 5943 5942 5940 5940 5940 5939 5938 5937 5935 5933 5931 5929 5925
5940 5940 5941 5941 5942 5943 5944 5945 5944 5945 5946 5947 5947 5947 5945 5944 5944 5944 5944 5944 5945 5944 5943 5943 5943 5943 5943 5942 5942 5945 5940 5941 5940 5940 5940 5940 5940 5937 5936 5934 5932 5930 5926
5939 5938 5939 5939 5940 5941 5942 5943 5943 5944 5945 5946 5946 5946 5945 5943 5942 5942 5943 5943 5943 5942 5941 5943 5914 5943 5941 5940 5940 5940 5940 5939 5938 5937 5938 5938 5938 5938 5935 5934 5932 5930 5928
5937 5937 5937 5937 5937 5938 5939 5940 5941 5942 5943 5944 5944 5944 5944 5943 5941 5941 5941 5941 5941 5940 5940 5942 5941 5940 5939 5938 5937 5935 5938 5938 5938 5936 5936 5936 5935 5934 5935 5933 5931 5930 5929
5933 5934 5934 5934 5935 5935 5937 5938 5939 5940 5941 5941 5941 5941 5941 5940 5939 5940 5939 5939 5939 5938 5940 5938 5937 5937 5936 5936 5931 5906 5925 5934 5930 5934 5935 5934 5932 5931 5932 5932 5932 5930 5928
5929 5929 5930 5931 5932 5933 5934 5935 5936 5937 5938 5938 5938 5939 5939 5938 5936 5936 5937 5937 5936 5938 5934 5933 5933 5933 5933 5933 5934 5927 5928 5896 5927 5927 5926 5931 5932 5931 5930 5930 5929 5929 5930
5927 5926 5926 5927 5929 5930 5930 5932 5933 5935 5936 5936 5936 5937 5937 5935 5934 5933 5933 5933 5933 5934 5933 5932 5931 5931 5930 5931 5930 5931 5926 5900 5912 5888 5923 5925 5930 5929 5928 5928 5928 5927 5927
5926 5924 5924 5924 5925 5926 5927 5928 5930 5932 5933 5934 5934 5935 5934 5932 5931 5931 5930 5929 5930 5930 5930 5930 5929 5928 5928 5927 5927 5927 5927 5918 5916 5920 5921 5926 5927 5925 5926 5926 5926 5925 5925
5922 5921 5920 5921 5922 5923 5924 5925 5926 5928 5928 5930 5931 5932 5932 5929 5929 5929 5927 5926 5927 5927 5930 5928 5926 5926 5926 5925 5925 5924 5924 5925 5924 5922 5924 5924 5922 5922 5922 5922 5923 5923 5923
5919 5919 5916 5916 5917 5919 5920 5921 5922 5924 5925 5927 5927 5927 5928 5928 5927 5926 5925 5924 5924 5924 5928 5926 5924 5923 5922 5922 5922 5920 5920 5920 5920 5920 5921 5921 5920 5921 5921 5921 5920 5919 5918
Wind_Speed
15 16 16 16 18 18 19 21 22 21 19 19 18 18 18 15 15 15 13 11 10 9 7 6 5 6 5 4 3 2 1 1 1 3 3 4 6 8 8 9 10 8 6
18 17 16 16 18 18 19 21 23 24 24 23 20 20 19 18 17 16 14 13 11 9 7 6 5 6 5 4 3 2 0 1 3 4 4 4 10 11 12 10 11 8 7
17 17 18 16 16 16 17 20 22 21 20 19 20 18 18 16 16 15 13 13 14 12 11 8 6 6 6 7 7 6 3 2 5 7 6 2 8 8 9 9 9 8 8
17 15 16 17 15 15 15 17 17 18 16 16 16 15 15 15 13 12 11 11 12 13 12 11 9 8 8 10 11 8 9 7 6 6 6 7 5 6 10 10 8 11 6
17 16 14 16 15 15 15 16 15 15 15 14 13 13 14 13 12 11 11 11 10 9 11 10 11 9 7 10 11 11 10 7 8 7 6 7 8 7 8 8 10 3 4
16 16 15 15 18 18 17 15 13 13 12 11 11 11 12 12 11 13 11 11 10 10 10 11 10 10 7 7 10 10 10 7 8 7 5 5 4 6 8 8 7 9 8
16 15 16 15 15 17 15 12 12 11 10 10 10 10 11 12 11 12 12 11 9 9 12 13 13 14 12 12 12 13 11 7 6 7 8 8 8 9 9 10 9 9 7
14 14 13 13 12 12 12 11 10 9 9 8 9 9 10 12 11 10 11 13 11 10 10 13 14 15 15 12 10 9 10 8 6 8 9 9 9 10 8 10 12 14 14
12 12 10 10 11 11 11 10 9 8 6 6 8 8 9 10 9 10 10 11 11 14 13 12 11 11 12 12 12 12 12 9 9 8 9 9 9 7 14 11 13 15 14
10 9 9 10 10 11 10 9 7 6 4 4 6 7 8 9 8 9 9 9 9 8 8 8 9 7 10 10 11 11 12 12 10 9 8 10 9 10 11 12 13 13 14
11 9 8 7 7 8 8 8 6 5 4 5 5 6 7 7 8 8 8 8 7 6 6 6 8 6 8 9 10 9 11 13 14 14 14 14 15 15 14 13 13 14 15
9 9 8 6 5 5 5 6 6 4 4 5 5 4 5 5 6 5 6 7 6 6 6 4 6 6 7 9 10 10 13 13 12 15 14 14 15 16 16 17 16 16 16
8 8 7 7 7 6 6 6 5 3 3 4 3 3 3 3 3 4 4 5 5 5 4 4 4 6 4 7 7 10 11 12 13 13 13 13 13 14 15 16 16 17 17
9 10 9 6 8 8 8 6 5 4 3 3 4 4 3 2 2 1 2 3 4 3 4 3 2 1 2 3 6 7 8 9 9 10 10 11 12 13 14 15 15 15 15
9 10 10 8 7 9 8 7 6 4 4 5 4 4 4 3 3 1 1 3 2 3 3 3 2 1 1 1 2 3 5 6 7 9 10 10 11 12 13 15 16 16 17
10 11 12 11 9 9 10 10 8 5 5 5 5 6 9 6 5 4 5 5 6 4 3 3 3 3 3 3 3 2 2 3 5 6 8 8 10 12 15 16 16 17 17
10 13 14 14 13 12 11 12 12 9 7 7 6 6 7 7 7 8 5 7 7 6 5 4 2 5 5 5 5 6 5 5 5 7 7 8 10 13 15 16 12 16 17
10 11 14 16 16 15 14 14 15 13 11 9 9 9 10 10 9 10 8 7 10 8 6 5 2 3 7 6 7 6 15 9 7 9 9 6 9 12 13 14 12 16 18
13 12 13 15 18 17 17 16 16 14 14 13 12 12 12 13 13 13 11 9 9 9 8 4 5 5 5 6 7 9 12 12 11 11 11 10 9 11 12 13 13 17 18
14 14 14 15 17 19 19 18 17 17 16 16 15 14 13 14 14 13 12 11 10 12 11 5 9 5 6 7 9 10 11 11 13 13 13 12 13 14 12 12 14 15 15
15 15 15 16 16 17 18 17 17 17 17 17 16 16 13 13 14 14 11 11 11 12 11 16 10 7 7 6 11 14 6 12 9 12 12 13 13 16 13 12 11 14 13
18 16 15 17 18 17 17 17 17 17 17 16 16 16 15 14 14 14 12 12 11 3 21 14 13 11 9 8 6 13 14 5 11 11 9 15 14 11 10 10 10 12 9
17 15 14 15 18 19 17 18 17 15 16 16 14 14 14 14 14 14 12 11 12 13 13 14 13 13 11 10 9 9 13 18 2 9 8 10 13 6 6 8 11 15 13
23 16 16 15 17 18 18 17 16 15 14 15 13 12 13 13 13 14 13 11 11 13 13 12 13 14 13 12 11 12 11 16 17 12 8 14 10 7 8 7 10 11 12
24 20 18 14 15 16 17 16 15 16 14 15 14 14 14 13 13 15 14 13 14 14 12 16 14 14 15 15 14 14 14 14 15 14 12 15 14 12 9 9 9 10 13
26 25 19 18 16 16 18 18 18 18 15 16 16 16 17 17 16 17 17 16 15 16 16 20 14 15 15 16 17 17 16 16 16 14 13 13 14 13 13 12 9 11 12
Wind_Direction
110 108 113 117 113 119 116 112 108 105 110 110 108 108 104 101 95 91 87 87 87 94 106 109 111 106 93 91 92 92 43 14 345 314 300 307 288 285 244 242 239 223 233
112 116 118 120 122 119 114 113 107 103 101 103 105 102 100 98 95 91 90 86 83 80 93 115 110 92 93 95 91 77 3 355 24 14 8 354 329 322 334 298 259 236 237
117 122 124 122 117 118 118 115 110 105 101 101 100 100 98 96 91 91 89 86 84 79 81 106 103 96 81 61 45 47 45 35 54 61 322 113 355 341 343 346 277 232 234
113 115 116 120 122 118 116 116 112 105 106 103 103 105 101 93 88 87 79 77 78 73 73 82 85 91 89 63 51 55 63 62 55 41 36 359 324 11 0 353 327 274 251
119 115 116 120 121 113 111 119 113 107 102 100 100 100 91 85 76 72 71 65 70 62 59 86 81 82 83 63 55 58 58 64 36 31 30 15 348 344 6 9 18 346 296
123 121 118 118 118 109 109 112 110 102 99 99 95 89 85 82 74 64 67 64 67 66 72 90 91 88 87 76 64 74 53 59 44 27 27 26 12 358 352 347 8 5 7
126 127 125 116 108 108 109 109 102 101 100 95 92 85 81 76 72 68 68 65 70 69 89 83 90 90 87 90 80 66 53 36 23 40 46 39 32 32 13 9 4 348 337
131 130 128 121 111 108 112 108 105 105 101 100 96 89 82 79 72 74 68 70 78 67 92 85 90 86 79 83 75 59 49 43 48 54 60 47 45 35 18 18 16 23 19
129 126 126 124 127 123 116 114 118 112 115 111 99 95 86 86 79 71 71 71 85 81 86 81 96 81 71 74 77 67 57 58 62 62 55 41 27 20 35 38 26 25 22
132 127 133 134 133 128 122 126 122 123 132 123 110 98 85 79 74 71 78 85 85 87 83 85 82 69 62 73 72 67 65 69 71 70 47 51 52 47 36 36 30 27 29
147 137 144 147 143 141 135 133 140 150 147 144 130 106 94 91 79 71 71 71 76 77 89 79 75 65 73 73 68 70 70 71 70 74 71 58 54 51 44 38 37 31 29
172 155 148 161 165 156 142 141 151 153 156 163 134 122 103 110 96 92 66 63 62 71 63 77 76 67 61 70 74 75 72 72 72 69 65 57 51 50 49 45 39 34 31
192 188 175 170 184 183 170 160 167 165 179 186 191 186 130 104 95 81 79 57 56 55 97 80 66 99 76 82 91 82 73 65 63 62 62 60 51 42 38 36 33 29 27
205 200 199 201 202 199 189 190 194 190 209 241 239 226 214 207 139 142 53 63 52 55 38 81 192 356 65 77 78 72 66 64 57 49 48 44 41 36 27 23 23 19 15
214 212 210 211 222 220 220 215 206 212 218 241 255 271 264 262 274 332 341 349 17 38 25 355 341 285 236 200 111 93 65 52 47 39 35 26 30 25 17 10 5 360 355
249 228 218 220 225 225 228 234 235 237 232 236 254 260 275 273 272 278 285 307 340 353 1 343 347 328 259 261 264 286 355 9 7 21 18 11 12 12 6 4 356 0 357
261 247 234 227 227 235 238 242 247 253 244 240 237 249 266 278 273 282 279 283 309 318 323 341 331 332 298 268 283 297 300 306 320 325 343 339 353 357 360 0 12 10 5
258 259 245 237 235 238 244 250 251 254 253 255 254 258 267 274 279 278 282 292 300 306 301 313 326 298 307 296 283 248 272 280 293 302 308 323 342 337 355 0 1 8 10
264 259 256 241 235 238 240 245 250 255 258 261 264 266 270 276 278 283 289 289 301 288 281 312 198 258 269 287 282 290 278 273 274 282 293 303 316 330 338 343 355 1 5
276 267 261 256 239 234 239 244 250 258 263 269 269 273 274 276 279 281 285 290 290 286 281 281 259 249 256 272 278 323 295 277 276 279 281 289 295 303 304 322 338 347 354
281 271 265 254 249 241 242 245 252 260 265 269 273 275 276 281 286 289 292 285 282 281 268 259 261 271 266 288 266 259 280 256 250 277 285 286 292 303 305 300 313 330 346
275 273 266 259 251 245 244 248 252 260 266 267 271 277 281 279 280 285 281 279 277 144 269 272 269 276 280 278 286 299 284 189 301 265 283 301 303 303 300 305 315 314 331
279 268 261 262 259 254 250 252 255 258 263 264 264 270 276 277 278 278 271 267 267 264 260 268 271 276 282 287 286 272 286 282 204 135 303 302 295 293 320 332 328 327 317
351 275 263 246 252 256 253 251 256 256 258 259 262 273 276 273 276 276 271 272 270 267 266 270 271 273 273 277 271 269 257 288 288 290 287 298 274 274 302 313 327 326 338
346 334 265 262 250 250 257 256 254 253 253 260 270 276 280 283 285 282 280 276 269 265 276 274 261 266 270 269 264 256 251 255 261 268 241 241 255 270 280 297 320 306 324
324 339 288 264 265 260 258 259 259 256 254 265 271 279 289 294 293 289 284 278 277 274 263 263 262 268 260 258 255 253 253 257 258 252 259 261 266 279 288 288 290 287 294